EW2235 Weather Reports


Display with metric or nautical units.
time (UTC)temp
F
wind
direction
speed
MPH
gust
MPH
rain 1hr
in
rain 24hr
in
rain mn
in
humidity
%
barometer
mb
20260508073319 55 137 0.0 0.0 0.00 0.00 0.00 72 1016.9
20260508072829 56 137 0.0 0.0 0.00 0.00 0.00 71 1017.0
20260508072312 56 137 0.0 0.0 0.00 0.00 0.00 71 1016.9
20260508071814 56 137 0.0 0.0 0.00 0.00 0.00 71 1016.8
20260508071320 56 188 0.0 0.0 0.00 0.00 0.00 71 1016.9
20260508070823 56 188 0.0 0.0 0.00 0.00 0.00 70 1016.9
20260508070322 56 188 0.0 0.0 0.00 0.00 0.00 69 1016.9
20260508065831 56 188 0.0 0.0 0.00 0.00 0.00 69 1016.9
20260508065331 56 188 0.0 0.0 0.00 0.00 0.00 69 1016.9
20260508064813 57 188 0.0 0.0 0.00 0.00 0.00 69 1016.9
20260508064320 57 128 0.0 0.0 0.00 0.00 0.00 68 1016.9
20260508063822 57 128 0.0 0.0 0.00 0.00 0.00 68 1016.9
20260508063328 57 128 0.0 0.0 0.00 0.00 0.00 67 1016.9
20260508062831 57 128 0.0 0.0 0.00 0.00 0.00 65 1016.8
20260508062358 58 128 0.0 0.0 0.00 0.00 0.00 65 1016.9
20260508061814 58 128 0.0 0.0 0.00 0.00 0.00 64 1016.9
20260508061321 58 128 0.0 0.0 0.00 0.00 0.00 64 1016.8
20260508060823 58 128 0.0 0.0 0.00 0.00 0.00 63 1016.9
20260508060322 58 128 0.0 0.0 0.00 0.00 0.00 62 1016.9
20260508055832 58 128 0.0 0.0 0.00 0.00 0.00 62 1016.9
20260508055328 58 128 0.0 0.0 0.00 0.00 0.00 61 1016.9
20260508054838 59 128 0.0 0.0 0.00 0.00 0.00 60 1016.8
20260508054324 59 128 0.0 0.0 0.00 0.00 0.00 59 1016.9
20260508053826 60 128 0.0 0.0 0.00 0.00 0.00 58 1016.8
20260508053332 60 128 0.0 0.0 0.00 0.00 0.00 57 1016.9
20260508052815 60 128 0.0 0.0 0.00 0.00 0.00 57 1016.8
20260508052335 60 128 0.0 0.0 0.00 0.00 0.00 56 1016.8
20260508051843 60 127 0.0 0.0 0.00 0.00 0.00 56 1016.9
20260508051345 60 116 0.0 0.0 0.00 0.00 0.00 55 1016.8
20260508050338 60 146 0.0 0.0 0.00 0.00 0.00 56 1016.8
20260508045839 60 146 0.0 0.0 0.00 0.00 0.00 57 1016.8
20260508045344 60 146 0.0 0.0 0.00 0.00 0.00 56 1016.9
20260508044852 60 146 0.0 2.0 0.00 0.00 0.00 56 1016.8
20260508044358 60 158 0.0 2.0 0.00 0.00 0.00 58 1016.8
20260508043819 60 131 0.0 0.0 0.00 0.00 0.00 58 1016.8
20260508043318 61 129 0.0 0.0 0.00 0.00 0.00 58 1016.9
20260508042828 61 121 0.0 0.0 0.00 0.00 0.00 57 1016.8
20260508042327 61 137 0.0 0.0 0.00 0.00 0.00 56 1016.8
20260508041816 61 137 0.0 0.0 0.00 0.00 0.00 55 1016.8
20260508041323 62 137 0.0 0.0 0.00 0.00 0.00 55 1016.6
20260508040825 62 137 0.0 0.0 0.00 0.00 0.00 55 1016.6
20260508040325 62 138 0.0 0.0 0.00 0.00 0.00 55 1016.6
20260508035814 62 137 0.0 0.0 0.00 0.00 0.00 54 1016.6
20260508035312 62 137 0.0 0.0 0.00 0.00 0.00 55 1016.5
20260508034815 62 137 0.0 0.0 0.00 0.00 0.00 54 1016.5
20260508034321 62 137 0.0 0.0 0.00 0.00 0.00 54 1016.5
20260508033823 63 122 0.0 0.0 0.00 0.00 0.00 53 1016.4
20260508033330 63 122 0.0 0.0 0.00 0.00 0.00 53 1016.4
20260508032832 63 122 0.0 0.0 0.00 0.00 0.00 53 1016.4
20260508032311 64 122 0.0 0.0 0.00 0.00 0.00 54 1016.3
20260508031815 64 122 0.0 0.0 0.00 0.00 0.00 54 1016.3
20260508031342 65 122 0.0 0.0 0.00 0.00 0.00 52 1016.2
20260508030852 65 122 0.0 0.0 0.00 0.00 0.00 52 1016.1
20260508030357 65 122 0.0 0.0 0.00 0.00 0.00 52 1016.1
20260508025840 65 122 0.0 0.0 0.00 0.00 0.00 52 1016.1
20260508025346 66 122 0.0 0.0 0.00 0.00 0.00 52 1016.1
20260508024856 66 122 0.0 0.0 0.00 0.00 0.00 52 1016.1
20260508024335 66 122 0.0 0.0 0.00 0.00 0.00 51 1016.2
20260508023845 67 122 0.0 0.0 0.00 0.00 0.00 50 1016.2
20260508023351 67 122 0.0 0.0 0.00 0.00 0.00 50 1016.2
20260508022812 67 122 0.0 0.0 0.00 0.00 0.00 49 1016.2
20260508022312 67 122 0.0 0.0 0.00 0.00 0.00 48 1016.2
20260508021822 67 122 0.0 0.0 0.00 0.00 0.00 48 1016.2
20260508021321 67 129 0.0 0.0 0.00 0.00 0.00 48 1016.3
20260508020831 68 58 0.0 0.0 0.00 0.00 0.00 48 1016.2
20260508020330 68 58 0.0 0.0 0.00 0.00 0.00 47 1016.2
20260508015812 68 50 0.0 0.0 0.00 0.00 0.00 47 1016.2
20260508015312 68 49 0.0 2.0 0.00 0.00 0.00 46 1016.3
20260508014842 68 5 0.0 2.0 0.00 0.00 0.00 49 1016.4
20260508014349 69 336 0.0 5.0 0.00 0.00 0.00 48 1016.4
20260508013858 69 15 0.0 5.0 0.00 0.00 0.00 47 1016.4
20260508013338 69 319 0.0 5.0 0.00 0.00 0.00 46 1016.4
20260508012847 70 352 2.0 5.0 0.00 0.00 0.00 46 1016.5
20260508012354 70 355 0.0 4.0 0.00 0.00 0.00 45 1016.5
20260508011836 70 330 0.0 5.0 0.00 0.00 0.00 45 1016.5
20260508011342 70 347 1.0 5.0 0.00 0.00 0.00 43 1016.5
20260508010859 70 324 0.0 4.0 0.00 0.00 0.00 45 1016.6
20260508010317 70 309 0.0 6.0 0.00 0.00 0.00 45 1016.6
20260508005820 70 325 0.0 0.0 0.00 0.00 0.00 45 1016.6
20260508005326 69 344 0.0 7.0 0.00 0.00 0.00 43 1016.7
20260508004829 70 6 4.0 7.0 0.00 0.00 0.00 42 1016.8
20260508004328 70 314 0.0 2.0 0.00 0.00 0.00 41 1016.8
20260508003818 70 137 0.0 3.0 0.00 0.00 0.00 42 1016.8
20260508003316 70 342 0.0 1.0 0.00 0.00 0.00 41 1016.9
20260508002818 70 344 0.0 3.0 0.00 0.00 0.00 40 1017.0
20260508002345 70 358 1.0 3.0 0.00 0.00 0.00 40 1017.0
20260508001853 70 281 0.0 0.0 0.00 0.00 0.00 40 1016.9
20260508001354 70 293 0.0 3.0 0.00 0.00 0.00 41 1016.9
20260508000835 70 327 1.0 3.0 0.00 0.00 0.00 39 1017.0
20260508000342 69 277 0.0 7.0 0.00 0.00 0.00 39 1017.0
20260507235849 69 11 1.0 7.0 0.00 0.00 0.00 38 1017.1
20260507235348 69 221 2.0 7.0 0.00 0.00 0.00 38 1017.1
20260507234836 69 289 0.0 6.0 0.00 0.00 0.00 38 1017.2
20260507234313 69 321 2.0 6.0 0.00 0.00 0.00 38 1017.2
20260507233823 68 340 0.0 3.0 0.00 0.00 0.00 38 1017.2
20260507233322 68 339 0.0 5.0 0.00 0.00 0.00 36 1017.3
20260507232824 69 15 1.0 5.0 0.00 0.00 0.00 35 1017.3
20260507232327 69 348 1.0 5.0 0.00 0.00 0.00 34 1017.5
20260507231830 68 342 0.0 5.0 0.00 0.00 0.00 32 1017.5
20260507231336 68 327 0.0 8.0 0.00 0.00 0.00 29 1017.6
20260507230819 68 326 5.0 8.0 0.00 0.00 0.00 29 1017.6
20260507230318 68 346 0.0 4.0 0.00 0.00 0.00 33 1017.6
20260507225827 68 291 0.0 7.0 0.00 0.00 0.00 32 1017.7
20260507225327 68 300 1.0 7.0 0.00 0.00 0.00 34 1017.8
20260507224829 68 340 0.0 5.0 0.00 0.00 0.00 36 1017.9
20260507224335 67 58 1.0 7.0 0.00 0.00 0.00 40 1017.9
20260507223317 67 305 0.0 4.0 0.00 0.00 0.00 42 1018.0
20260507222827 67 312 1.0 4.0 0.00 0.00 0.00 43 1018.0
20260507222326 66 335 0.0 6.0 0.00 0.00 0.00 45 1018.2
20260507221836 66 21 0.0 7.0 0.00 0.00 0.00 45 1018.2
20260507221315 66 4 4.0 7.0 0.00 0.00 0.00 47 1018.3
20260507220817 67 356 2.0 7.0 0.00 0.00 0.00 47 1018.4
20260507220317 67 332 0.0 5.0 0.00 0.00 0.00 48 1018.4
20260507215826 66 218 0.0 5.0 0.00 0.00 0.00 49 1018.4
20260507215325 66 354 2.0 6.0 0.00 0.00 0.00 48 1018.5
20260507214836 67 306 3.0 6.0 0.00 0.00 0.00 47 1018.5
20260507214318 67 296 1.0 5.0 0.00 0.00 0.00 47 1018.5
20260507213821 68 129 1.0 5.0 0.00 0.00 0.00 48 1018.6
20260507213327 66 176 2.0 6.0 0.00 0.00 0.00 48 1018.6
20260507212846 65 354 3.0 6.0 0.00 0.00 0.00 48 1018.7
20260507212349 65 9 0.0 6.0 0.00 0.00 0.00 50 1018.7
20260507211838 65 345 2.0 6.0 0.00 0.00 0.00 50 1018.8
20260507211339 65 359 2.0 6.0 0.00 0.00 0.00 50 1018.8
20260507210848 66 327 3.0 6.0 0.00 0.00 0.00 47 1018.9
20260507210354 68 209 0.0 1.0 0.00 0.00 0.00 46 1019.0
20260507205904 66 193 0.0 5.0 0.00 0.00 0.00 47 1019.0
20260507205343 66 346 0.0 1.0 0.00 0.00 0.00 50 1019.1
20260507204853 65 124 0.0 5.0 0.00 0.00 0.00 50 1019.1
20260507204331 64 293 1.0 7.0 0.00 0.00 0.00 53 1019.2
20260507203841 64 351 1.0 6.0 0.00 0.00 0.00 55 1019.2
20260507203320 63 352 0.0 4.0 0.00 0.00 0.00 53 1019.2
20260507202830 63 345 1.0 5.0 0.00 0.00 0.00 52 1019.3
20260507202336 62 300 2.0 7.0 0.00 0.00 0.00 56 1019.4
20260507201819 62 302 2.0 7.0 0.00 0.00 0.00 55 1019.5
20260507201318 62 319 2.0 6.0 0.00 0.00 0.00 55 1019.5
20260507200828 62 316 1.0 6.0 0.00 0.00 0.00 55 1019.5
20260507200327 63 2 0.0 6.0 0.00 0.00 0.00 56 1019.6
20260507195829 62 309 4.0 6.0 0.00 0.00 0.00 55 1019.7
20260507195336 64 319 2.0 5.0 0.00 0.00 0.00 53 1019.6
20260507194818 63 176 0.0 7.0 0.00 0.00 0.00 57 1019.7
20260507194318 62 87 2.0 7.0 0.00 0.00 0.00 57 1019.8
20260507193827 63 199 3.0 7.0 0.00 0.00 0.00 56 1019.9
20260507193326 62 304 0.0 3.0 0.00 0.00 0.00 59 1019.9
20260507192836 60 298 0.0 6.0 0.00 0.00 0.00 61 1019.9
20260507192335 61 345 3.0 8.0 0.00 0.00 0.00 59 1020.0
20260507191817 60 326 0.0 8.0 0.00 0.00 0.00 61 1020.1
20260507191340 61 299 0.0 4.0 0.00 0.00 0.00 62 1020.1
20260507190823 59 306 0.0 6.0 0.00 0.00 0.00 64 1020.1
20260507190323 60 289 0.0 5.0 0.00 0.00 0.00 65 1020.1
20260507185839 59 356 0.0 7.0 0.00 0.00 0.00 63 1020.2
20260507185426 60 304 4.0 7.0 0.00 0.00 0.00 61 1020.3
20260507184823 61 287 0.0 3.0 0.00 0.00 0.00 62 1020.4
20260507184323 61 210 0.0 3.0 0.00 0.00 0.00 64 1020.4
20260507183832 59 251 0.0 3.0 0.00 0.00 0.00 66 1020.4
20260507183332 59 321 1.0 3.0 0.00 0.00 0.00 64 1020.5
20260507182842 59 326 0.0 5.0 0.00 0.00 0.00 67 1020.5
20260507182320 58 257 1.0 5.0 0.00 0.00 0.00 66 1020.5
20260507181823 58 311 0.0 5.0 0.00 0.00 0.00 67 1020.6
20260507181322 57 318 0.0 4.0 0.00 0.00 0.00 69 1020.6
20260507180831 57 325 0.0 7.0 0.00 0.00 0.00 68 1020.6
20260507180331 57 342 2.0 7.0 0.00 0.00 0.00 69 1020.6
20260507175840 57 314 1.0 6.0 0.00 0.00 0.00 70 1020.7
20260507175340 57 345 3.0 6.0 0.00 0.00 0.00 68 1020.7
20260507174850 57 325 1.0 4.0 0.00 0.00 0.00 67 1020.7
20260507174356 57 15 0.0 2.0 0.00 0.00 0.00 70 1020.7
20260507173838 55 159 0.0 5.0 0.00 0.00 0.00 72 1020.8
20260507173345 55 27 0.0 2.0 0.00 0.00 0.00 72 1020.9
20260507172853 56 14 0.0 1.0 0.00 0.00 0.00 71 1020.9
20260507172352 56 14 0.0 1.0 0.00 0.00 0.00 73 1021.0
20260507171842 56 335 0.0 1.0 0.00 0.00 0.00 72 1020.9
20260507171320 55 12 0.0 0.0 0.00 0.00 0.00 74 1020.9
20260507170830 55 329 0.0 0.0 0.00 0.00 0.00 75 1020.9
20260507170329 53 15 0.0 6.0 0.00 0.00 0.00 77 1020.9
20260507165839 53 328 2.0 6.0 0.00 0.00 0.00 76 1021.0
20260507165318 53 321 0.0 3.0 0.00 0.00 0.00 77 1021.0
20260507164820 53 335 0.0 4.0 0.00 0.00 0.00 77 1021.0
20260507164320 52 308 1.0 4.0 0.00 0.00 0.00 78 1021.1
20260507163829 52 306 0.0 0.0 0.00 0.00 0.00 79 1021.0
20260507163329 52 47 0.0 3.0 0.00 0.00 0.00 79 1021.0
20260507162838 52 352 1.0 7.0 0.00 0.00 0.00 79 1021.0
20260507162318 51 347 2.0 7.0 0.00 0.00 0.00 79 1020.9
20260507161820 51 339 1.0 7.0 0.00 0.00 0.00 79 1021.0
20260507161327 51 340 2.0 7.0 0.00 0.00 0.00 78 1021.0
20260507160829 52 337 0.0 4.0 0.00 0.00 0.00 78 1021.0
20260507160328 52 1 0.0 4.0 0.00 0.00 0.00 79 1020.9
20260507155819 52 312 0.0 4.0 0.00 0.00 0.00 80 1020.9
20260507155317 51 352 0.0 0.0 0.00 0.00 0.00 81 1020.9
20260507154819 51 309 0.0 0.0 0.00 0.00 0.00 81 1021.0
20260507154325 51 330 0.0 0.0 0.00 0.00 0.00 82 1021.0
20260507153828 51 113 0.0 1.0 0.00 0.00 0.00 82 1021.0
20260507153334 51 37 0.0 0.0 0.00 0.00 0.00 83 1021.0
20260507152817 51 321 0.0 0.0 0.00 0.00 0.00 83 1021.0
20260507152316 51 61 0.0 1.0 0.00 0.00 0.00 84 1021.0
20260507151827 51 319 0.0 1.0 0.00 0.00 0.00 83 1021.0
20260507151325 51 352 0.0 0.0 0.00 0.00 0.00 83 1021.0
20260507150827 51 132 0.0 0.0 0.00 0.00 0.00 84 1021.0
20260507150333 51 81 0.0 0.0 0.00 0.00 0.00 83 1021.0
20260507145342 51 142 0.0 1.0 0.00 0.00 0.00 84 1021.0
20260507144825 51 134 0.0 0.0 0.00 0.00 0.00 84 1021.0
20260507144324 51 75 0.0 0.0 0.00 0.00 0.00 84 1021.0
20260507143826 51 86 0.0 0.0 0.00 0.00 0.00 84 1021.0
20260507143333 51 130 0.0 0.0 0.00 0.00 0.00 84 1020.9
20260507142835 51 131 0.0 0.0 0.00 0.00 0.00 84 1020.9
20260507142342 51 118 0.0 0.0 0.00 0.00 0.00 84 1020.9
20260507141824 51 148 0.0 0.0 0.00 0.00 0.00 85 1020.9
20260507141323 50 97 0.0 0.0 0.00 0.00 0.00 85 1020.8
20260507140832 50 97 0.0 0.0 0.00 0.00 0.00 85 1020.7
20260507140332 50 129 0.0 0.0 0.00 0.00 0.00 85 1020.8
20260507135835 50 129 0.0 0.0 0.00 0.00 0.00 85 1020.8
20260507135321 50 130 0.0 0.0 0.00 0.00 0.00 85 1020.7
20260507134831 50 133 0.0 0.0 0.00 0.00 0.00 84 1020.7
20260507134330 50 133 0.0 0.0 0.00 0.00 0.00 85 1020.6
20260507133819 50 133 0.0 0.0 0.00 0.00 0.00 85 1020.6
20260507133326 50 131 0.0 0.0 0.00 0.00 0.00 85 1020.6
20260507132336 50 89 0.0 0.0 0.00 0.00 0.00 85 1020.5
20260507131818 50 81 0.0 0.0 0.00 0.00 0.00 85 1020.5
20260507131324 50 139 0.0 0.0 0.00 0.00 0.00 86 1020.5
20260507130834 50 139 0.0 1.0 0.00 0.00 0.00 85 1020.5
20260507130333 50 118 0.0 1.0 0.00 0.00 0.00 85 1020.6
20260507125822 51 330 0.0 0.0 0.00 0.00 0.00 85 1020.6
20260507125321 51 330 0.0 0.0 0.00 0.00 0.00 85 1020.6
20260507124830 51 325 0.0 0.0 0.00 0.00 0.00 84 1020.6
20260507124329 51 325 0.0 0.0 0.00 0.00 0.00 83 1020.6
20260507123839 51 325 0.0 0.0 0.00 0.00 0.00 84 1020.6
20260507123318 51 325 0.0 0.0 0.00 0.00 0.00 83 1020.6
20260507122821 51 325 0.0 0.0 0.00 0.00 0.00 83 1020.6
20260507122320 51 325 0.0 0.0 0.00 0.00 0.00 83 1020.7
20260507121829 51 325 0.0 0.0 0.00 0.00 0.00 83 1020.7
20260507121328 51 333 0.0 0.0 0.00 0.00 0.00 83 1020.6
20260507120838 51 333 0.0 0.0 0.00 0.00 0.00 83 1020.7
20260507120317 51 333 0.0 0.0 0.00 0.00 0.00 83 1020.7
20260507115325 51 333 0.0 0.0 0.00 0.00 0.00 84 1020.8
20260507114828 51 333 0.0 0.0 0.00 0.00 0.00 84 1020.8
20260507114327 51 333 0.0 0.0 0.00 0.00 0.00 84 1020.8
20260507113837 51 333 0.0 0.0 0.00 0.00 0.00 83 1020.8
20260507113316 51 333 0.0 0.0 0.00 0.00 0.00 83 1020.8
20260507112818 51 333 0.0 0.0 0.00 0.00 0.00 84 1020.9
20260507112325 52 333 0.0 0.0 0.00 0.00 0.00 84 1020.9
20260507111815 52 333 0.0 0.0 0.00 0.00 0.00 83 1020.9
20260507111313 52 333 0.0 0.0 0.00 0.00 0.00 83 1020.9
20260507110823 52 333 0.0 0.0 0.00 0.00 0.00 83 1020.9
20260507110329 52 333 0.0 0.0 0.00 0.00 0.00 84 1020.9
20260507105838 52 333 0.0 0.0 0.00 0.00 0.00 83 1020.9
20260507105330 52 333 0.0 0.0 0.00 0.00 0.00 83 1021.0
20260507104819 52 333 0.0 0.0 0.00 0.00 0.00 83 1021.0
20260507104345 52 333 0.0 0.0 0.00 0.00 0.00 83 1021.0
20260507103847 52 327 0.0 0.0 0.00 0.00 0.00 84 1021.1
20260507103349 52 327 0.0 0.0 0.00 0.00 0.00 84 1021.1
20260507102838 52 356 0.0 0.0 0.00 0.00 0.00 83 1021.1
20260507102335 52 331 0.0 0.0 0.00 0.00 0.00 83 1021.1
20260507101841 52 324 0.0 0.0 0.00 0.00 0.00 83 1021.2
20260507101347 52 316 0.0 0.0 0.00 0.00 0.00 84 1021.2
20260507100853 52 316 0.0 0.0 0.00 0.00 0.00 84 1021.2
20260507100348 52 309 0.0 0.0 0.00 0.00 0.00 84 1021.2
20260507095315 52 342 0.0 0.0 0.00 0.00 0.00 83 1021.3
20260507094818 52 342 0.0 0.0 0.00 0.00 0.00 84 1021.3
20260507094323 52 342 0.0 0.0 0.00 0.00 0.00 84 1021.3
20260507093826 52 345 0.0 0.0 0.00 0.00 0.00 84 1021.3
20260507093331 52 345 0.0 0.0 0.00 0.00 0.00 85 1021.4
20260507092814 52 297 0.0 0.0 0.00 0.00 0.00 85 1021.5
20260507092313 52 332 0.0 0.0 0.00 0.00 0.00 86 1021.5
20260507091816 52 327 0.0 0.0 0.00 0.00 0.00 86 1021.6
20260507091322 52 327 0.0 0.0 0.00 0.00 0.00 86 1021.7
20260507090824 52 318 0.0 0.0 0.00 0.00 0.00 86 1021.7
20260507090331 52 311 0.0 0.0 0.00 0.00 0.00 86 1021.7
20260507085813 52 311 0.0 0.0 0.00 0.00 0.00 86 1021.7
20260507085313 52 311 0.0 0.0 0.00 0.00 0.00 86 1021.6
20260507084322 53 326 0.0 0.0 0.00 0.00 0.00 86 1021.6
20260507083824 53 326 0.0 0.0 0.00 0.00 0.00 86 1021.6
20260507083314 53 326 0.0 0.0 0.00 0.00 0.00 86 1021.6
20260507082817 53 326 0.0 0.0 0.00 0.00 0.00 86 1021.6
20260507082316 53 326 0.0 0.0 0.00 0.00 0.00 86 1021.7
20260507081826 53 313 0.0 0.0 0.00 0.00 0.00 86 1021.6
20260507081324 53 313 0.0 0.0 0.00 0.00 0.00 86 1021.6
20260507080328 53 15 0.0 0.0 0.00 0.00 0.00 85 1021.6
20260507075824 53 340 0.0 0.0 0.00 0.00 0.00 85 1021.6
20260507075325 53 327 0.0 0.0 0.00 0.00 0.00 85 1021.6
20260507074814 53 308 0.0 0.0 0.00 0.00 0.00 85 1021.6
20260507074313 53 309 0.0 2.0 0.00 0.00 0.00 85 1021.6
20260507073816 53 1 0.0 2.0 0.00 0.00 0.00 84 1021.6